Simultaneous Nadir Overpasses (SNOs) Predictions

Prediction of SNOs between LANDSAT-8 and METOP-A Satellite Orbit:

Table of predicted SNOs for the next 14.0 days since TLE Epoch: 11/28/2020
Index Date (LANDSAT-8) Time (LANDSAT-8) Lat,Lon (LANDSAT-8) SZA (LANDSAT-8 ) Date (METOP-A) Time (METOP-A) Lat,Lon (METOP-A) SZA (METOP-A ) Distance(km) Time Diff (sec)
1 11/29/2020 07:00:36 81.45, 120.64 105.76 11/29/2020 06:59:25 81.44, 120.64 105.72 0.77 71
2 11/29/2020 07:50:03 -81.44, -71.82 74.25 11/29/2020 07:50:05 -81.44, -71.85 74.26 0.81 2
3 12/02/2020 02:34:52 81.44,-173.10 106.14 12/02/2020 02:33:48 81.45,-173.27 106.10 2.99 64
4 12/02/2020 03:24:19 -81.44, -5.53 73.87 12/02/2020 03:24:27 -81.43, -5.34 73.84 3.23 8
5 12/04/2020 22:09:06 81.45,-106.50 106.52 12/04/2020 22:08:08 81.44,-106.43 106.49 1.78 58
6 12/04/2020 22:58:34 -81.43, 60.71 73.54 12/04/2020 22:58:49 -81.44, 60.75 73.52 1.40 15
7 12/07/2020 17:43:22 81.44, -40.34 106.77 12/07/2020 17:42:31 81.44, -40.40 106.75 1.35 51
8 12/07/2020 18:32:49 -81.43, 127.29 73.23 12/07/2020 18:33:11 -81.44, 127.20 73.23 1.39 22
9 12/10/2020 13:17:37 81.44, 26.15 107.01 12/10/2020 13:16:53 81.44, 25.99 106.98 2.74 44
